GW1008 Weather Reports


Display with metric or nautical units.
time (UTC)temp
F
wind
direction
speed
MPH
gust
MPH
rain 1hr
in
rain 24hr
in
rain mn
in
humidity
%
barometer
mb
20260902102016 59 0 0.0 3.0 0.00 0.00 0.00 64 1013.6
20260902101533 60 0 0.0 4.0 0.00 0.00 0.00 63 1013.6
20260902101019 60 0 0.0 4.0 0.00 0.00 0.00 61 1013.8
20260902100516 61 155 0.0 3.0 0.00 0.00 0.00 63 1013.7
20260902100031 60 0 0.0 2.0 0.00 0.00 0.00 63 1013.7
20260902095515 59 0 0.0 1.0 0.00 0.00 0.00 65 1013.8
20260902095017 59 0 0.0 1.0 0.00 0.00 0.00 65 1013.8
20260902094533 59 0 0.0 7.0 0.00 0.00 0.00 64 1013.9
20260902094018 59 0 0.0 7.0 0.00 0.00 0.00 64 1013.8
20260902093523 60 0 0.0 2.0 0.00 0.00 0.00 64 1013.9
20260902093034 59 0 0.0 0.0 0.00 0.00 0.00 66 1013.9
20260902092517 59 0 0.0 1.0 0.00 0.00 0.00 66 1014.0
20260902092023 59 0 0.0 3.0 0.00 0.00 0.00 68 1014.0
20260902091533 58 0 0.0 3.0 0.00 0.00 0.00 70 1014.1
20260902091016 58 0 0.0 0.0 0.00 0.00 0.00 70 1014.1
20260902090516 57 0 0.0 0.0 0.00 0.00 0.00 71 1014.0
20260902090033 57 0 0.0 0.0 0.00 0.00 0.00 70 1013.9
20260902085517 57 0 0.0 3.0 0.00 0.00 0.00 70 1013.9
20260902085017 57 0 0.0 3.0 0.00 0.00 0.00 70 1014.0
20260902084531 57 0 0.0 2.0 0.00 0.00 0.00 72 1014.0
20260902084022 57 0 0.0 2.0 0.00 0.00 0.00 74 1014.0
20260902083516 56 0 0.0 3.0 0.00 0.00 0.00 78 1014.1
20260902083031 54 0 0.0 3.0 0.00 0.00 0.00 78 1014.2
20260902082516 54 149 0.0 0.0 0.00 0.00 0.00 78 1014.5
20260902082021 54 0 0.0 2.0 0.00 0.00 0.00 79 1014.4
20260902081534 53 0 0.0 2.0 0.00 0.00 0.00 80 1014.4
20260902081018 53 0 0.0 3.0 0.00 0.00 0.00 81 1014.3
20260902080518 52 0 0.0 3.0 0.00 0.00 0.00 81 1014.4
20260902080036 52 0 0.0 3.0 0.00 0.00 0.00 83 1014.3
20260902075515 51 0 0.0 2.0 0.00 0.00 0.00 83 1014.4
20260902075017 51 0 0.0 1.0 0.00 0.00 0.00 83 1014.4
20260902074532 51 0 0.0 1.0 0.00 0.00 0.00 83 1014.4
20260902074017 51 0 0.0 0.0 0.00 0.00 0.00 84 1014.3
20260902073516 51 0 0.0 0.0 0.00 0.00 0.00 84 1014.5
20260902073033 51 0 0.0 0.0 0.00 0.00 0.00 84 1014.4
20260902072519 51 0 0.0 0.0 0.00 0.00 0.00 84 1014.3
20260902072021 50 0 0.0 0.0 0.00 0.00 0.00 85 1014.4
20260902071537 50 0 0.0 0.0 0.00 0.00 0.00 86 1014.3
20260902071018 50 0 0.0 0.0 0.00 0.00 0.00 86 1014.3
20260902070518 50 0 0.0 0.0 0.00 0.00 0.00 86 1014.2
20260902070035 49 0 0.0 0.0 0.00 0.00 0.00 86 1014.1
20260902065518 49 0 0.0 0.0 0.00 0.00 0.00 86 1014.2
20260902065018 49 0 0.0 0.0 0.00 0.00 0.00 87 1014.0
20260902064534 49 0 0.0 0.0 0.00 0.00 0.00 86 1014.2
20260902064020 48 0 0.0 0.0 0.00 0.00 0.00 87 1014.2
20260902063519 48 0 0.0 0.0 0.00 0.00 0.00 87 1014.1
20260902063035 48 0 0.0 0.0 0.00 0.00 0.00 87 1014.0
20260902062516 48 0 0.0 0.0 0.00 0.00 0.00 86 1014.0
20260902062018 47 0 0.0 0.0 0.00 0.00 0.00 86 1014.1
20260902061531 47 0 0.0 0.0 0.00 0.00 0.00 86 1014.2
20260902061028 47 0 0.0 0.0 0.00 0.00 0.00 86 1014.2
20260902060515 47 0 0.0 0.0 0.00 0.00 0.00 86 1014.2
20260902060036 47 0 0.0 0.0 0.00 0.00 0.00 86 1014.1
20260902055519 47 0 0.0 0.0 0.00 0.00 0.00 86 1014.1
20260902055019 47 0 0.0 0.0 0.00 0.00 0.00 87 1014.1
20260902054536 47 0 0.0 0.0 0.00 0.00 0.00 87 1014.0
20260902054015 46 0 0.0 0.0 0.00 0.00 0.00 86 1014.0
20260902053518 46 0 0.0 0.0 0.00 0.00 0.00 86 1014.0
20260902053032 46 0 0.0 0.0 0.00 0.00 0.00 86 1014.1
20260902052519 46 0 0.0 0.0 0.00 0.00 0.00 86 1014.0
20260902052016 46 0 0.0 0.0 0.00 0.00 0.00 86 1014.1
20260902051532 46 0 0.0 0.0 0.00 0.00 0.00 86 1014.0
20260902051018 46 0 0.0 0.0 0.00 0.00 0.00 85 1014.0
20260902050516 46 0 0.0 0.0 0.00 0.00 0.00 85 1013.9
20260902050032 46 0 0.0 0.0 0.00 0.00 0.00 85 1014.0
20260902045516 46 0 0.0 0.0 0.00 0.00 0.00 85 1014.1
20260902045018 46 0 0.0 0.0 0.00 0.00 0.00 85 1014.1
20260902044542 46 0 0.0 0.0 0.00 0.00 0.00 85 1014.1
20260902044017 46 0 0.0 0.0 0.00 0.00 0.00 85 1013.9
20260902043517 46 0 0.0 0.0 0.00 0.00 0.00 85 1013.9
20260902043032 45 0 0.0 0.0 0.00 0.00 0.00 85 1013.9
20260902042548 45 0 0.0 0.0 0.00 0.00 0.00 85 1013.9
20260902042018 45 0 0.0 0.0 0.00 0.00 0.00 85 1013.8
20260902041538 45 0 0.0 0.0 0.00 0.00 0.00 84 1013.8
20260902041018 45 0 0.0 0.0 0.00 0.00 0.00 84 1013.8
20260902040518 45 0 0.0 0.0 0.00 0.00 0.00 84 1013.8
20260902040035 45 0 0.0 0.0 0.00 0.00 0.00 83 1013.7
20260902035516 45 0 0.0 0.0 0.00 0.00 0.00 83 1013.6
20260902035018 46 0 0.0 0.0 0.00 0.00 0.00 82 1013.6
20260902034532 46 0 0.0 0.0 0.00 0.00 0.00 83 1013.6
20260902034015 46 0 0.0 0.0 0.00 0.00 0.00 83 1013.6
20260902033518 46 0 0.0 0.0 0.00 0.00 0.00 83 1013.5
20260902033032 46 0 0.0 0.0 0.00 0.00 0.00 83 1013.5
20260902032518 46 0 0.0 0.0 0.00 0.00 0.00 83 1013.6
20260902032019 46 0 0.0 0.0 0.00 0.00 0.00 83 1013.6
20260902031539 46 0 0.0 0.0 0.00 0.00 0.00 82 1013.6
20260902031017 46 0 0.0 0.0 0.00 0.00 0.00 82 1013.7
20260902030516 46 0 0.0 0.0 0.00 0.00 0.00 82 1013.6
20260902030031 46 0 0.0 0.0 0.00 0.00 0.00 82 1013.6
20260902025518 46 0 0.0 0.0 0.00 0.00 0.00 81 1013.6
20260902025018 46 0 0.0 0.0 0.00 0.00 0.00 80 1013.6
20260902024531 46 0 0.0 0.0 0.00 0.00 0.00 80 1013.5
20260902024017 46 0 0.0 0.0 0.00 0.00 0.00 80 1013.5
20260902023516 47 0 0.0 0.0 0.00 0.00 0.00 80 1013.5
20260902023031 47 0 0.0 6.0 0.00 0.00 0.00 80 1013.4
20260902022518 47 0 0.0 7.0 0.00 0.00 0.00 79 1013.5
20260902022017 47 155 0.0 7.0 0.00 0.00 0.00 79 1013.5
20260902021542 47 139 1.0 7.0 0.00 0.00 0.00 80 1013.4
20260902021016 47 152 0.0 5.0 0.00 0.00 0.00 80 1013.4
20260902020516 46 0 0.0 4.0 0.00 0.00 0.00 80 1013.4
20260902020036 46 0 0.0 4.0 0.00 0.00 0.00 81 1013.5
20260902015519 46 0 0.0 4.0 0.00 0.00 0.00 80 1013.4
20260902015018 46 0 0.0 0.0 0.00 0.00 0.00 81 1013.5
20260902014547 46 0 0.0 0.0 0.00 0.00 0.00 80 1013.4
20260902014016 46 0 0.0 0.0 0.00 0.00 0.00 80 1013.3
20260902013516 46 0 0.0 2.0 0.00 0.00 0.00 80 1013.3
20260902013034 46 0 0.0 4.0 0.00 0.00 0.00 80 1013.3
20260902012516 45 0 0.0 4.0 0.00 0.00 0.00 81 1013.1
20260902012017 45 0 0.0 4.0 0.00 0.00 0.00 81 1013.1
20260902011531 44 0 0.0 4.0 0.00 0.00 0.00 81 1013.0
20260902011016 44 0 0.0 4.0 0.00 0.00 0.00 81 1013.0
20260902010515 44 0 0.0 2.0 0.00 0.00 0.00 80 1013.0
20260902010032 44 0 0.0 2.0 0.00 0.00 0.00 79 1012.8
20260902005516 44 0 0.0 0.0 0.00 0.00 0.00 78 1012.9
20260902005019 45 0 0.0 0.0 0.00 0.00 0.00 78 1012.9
20260902004534 45 0 0.0 0.0 0.00 0.00 0.00 79 1012.9
20260902004019 45 0 0.0 0.0 0.00 0.00 0.00 79 1012.9
20260902003520 45 0 0.0 0.0 0.00 0.00 0.00 78 1012.9
20260902003034 45 0 0.0 0.0 0.00 0.00 0.00 78 1012.7
20260902002517 45 0 0.0 0.0 0.00 0.00 0.00 79 1012.7
20260902002019 46 0 0.0 0.0 0.00 0.00 0.00 78 1012.7
20260902001533 46 0 0.0 0.0 0.00 0.00 0.00 78 1012.7
20260902001015 46 0 0.0 0.0 0.00 0.00 0.00 78 1012.7
20260902000521 46 0 0.0 0.0 0.00 0.00 0.00 77 1012.7
20260902000039 47 0 0.0 0.0 0.00 0.00 0.00 77 1012.5
20260901235521 47 0 0.0 0.0 0.00 0.00 0.00 77 1012.5
20260901235018 47 0 0.0 2.0 0.00 0.00 0.00 77 1012.7
20260901234548 47 0 0.0 2.0 0.00 0.00 0.00 77 1012.6
20260901234018 48 0 0.0 0.0 0.00 0.00 0.00 76 1012.6
20260901233517 48 0 0.0 0.0 0.00 0.00 0.00 76 1012.5
20260901233031 48 0 0.0 0.0 0.00 0.00 0.00 76 1012.6
20260901232516 48 0 0.0 0.0 0.00 0.00 0.00 75 1012.6
20260901232022 48 0 0.0 3.0 0.00 0.00 0.00 75 1012.6
20260901231534 49 0 0.0 3.0 0.00 0.00 0.00 75 1012.6
20260901231017 49 0 0.0 3.0 0.00 0.00 0.00 75 1012.5
20260901230518 49 0 0.0 3.0 0.00 0.00 0.00 74 1012.6
20260901230034 49 0 0.0 0.0 0.00 0.00 0.00 74 1012.7
20260901225517 49 0 0.0 0.0 0.00 0.00 0.00 74 1012.7
20260901225017 50 0 0.0 3.0 0.00 0.00 0.00 74 1012.7
20260901224538 50 0 0.0 3.0 0.00 0.00 0.00 75 1012.6
20260901224016 49 0 0.0 9.0 0.00 0.00 0.00 75 1012.4
20260901223517 49 0 1.0 9.0 0.00 0.00 0.00 76 1012.4
20260901223031 49 0 1.0 6.0 0.00 0.00 0.00 77 1012.4
20260901222521 48 286 0.0 4.0 0.00 0.00 0.00 78 1012.4
20260901222016 48 0 0.0 4.0 0.00 0.00 0.00 78 1012.5
20260901221600 48 286 0.0 4.0 0.00 0.00 0.00 79 1012.5
20260901221017 48 0 1.0 6.0 0.00 0.00 0.00 79 1012.4
20260901220517 47 0 0.0 6.0 0.00 0.00 0.00 80 1012.3
20260901220032 47 284 0.0 4.0 0.00 0.00 0.00 81 1012.2
20260901215515 46 0 0.0 4.0 0.00 0.00 0.00 80 1012.2
20260901215022 46 0 0.0 3.0 0.00 0.00 0.00 78 1012.3
20260901214533 46 0 0.0 3.0 0.00 0.00 0.00 78 1012.5
20260901214017 46 0 0.0 3.0 0.00 0.00 0.00 79 1012.5
20260901213514 46 0 0.0 0.0 0.00 0.00 0.00 78 1012.5
20260901213035 46 0 0.0 0.0 0.00 0.00 0.00 77 1012.5
20260901212516 46 0 0.0 0.0 0.00 0.00 0.00 78 1012.5
20260901212021 46 0 0.0 0.0 0.00 0.00 0.00 79 1012.5
20260901211535 46 0 0.0 0.0 0.00 0.00 0.00 80 1012.6
20260901211017 46 0 0.0 4.0 0.00 0.00 0.00 80 1012.5
20260901210516 45 0 0.0 4.0 0.00 0.00 0.00 80 1012.4
20260901210033 45 0 0.0 0.0 0.00 0.00 0.00 80 1012.3
20260901205518 45 0 0.0 0.0 0.00 0.00 0.00 79 1012.4
20260901205017 45 0 0.0 0.0 0.00 0.00 0.00 78 1012.4
20260901204535 45 0 0.0 0.0 0.00 0.00 0.00 78 1012.4
20260901204015 46 0 0.0 0.0 0.00 0.00 0.00 77 1012.4
20260901203518 46 0 0.0 0.0 0.00 0.00 0.00 76 1012.3
20260901203047 46 0 0.0 0.0 0.00 0.00 0.00 76 1012.2
20260901202516 47 0 0.0 0.0 0.00 0.00 0.00 76 1012.4
20260901202023 47 0 0.0 0.0 0.00 0.00 0.00 75 1012.3
20260901201543 48 0 0.0 0.0 0.00 0.00 0.00 74 1012.2
20260901201017 49 0 0.0 0.0 0.00 0.00 0.00 73 1012.3
20260901200517 49 0 0.0 0.0 0.00 0.00 0.00 73 1012.2
20260901200034 50 0 0.0 2.0 0.00 0.00 0.00 73 1012.2
20260901195516 50 0 0.0 2.0 0.00 0.00 0.00 73 1012.0
20260901195019 50 0 0.0 2.0 0.00 0.00 0.00 72 1011.9
20260901194533 51 0 0.0 0.0 0.00 0.00 0.00 72 1011.9
20260901194018 51 0 0.0 0.0 0.00 0.00 0.00 72 1011.9
20260901193518 51 0 0.0 0.0 0.00 0.00 0.00 71 1011.8
20260901193032 52 0 0.0 0.0 0.00 0.00 0.00 70 1011.7
20260901192517 52 0 0.0 0.0 0.00 0.00 0.00 70 1011.6
20260901192020 53 0 0.0 0.0 0.00 0.00 0.00 69 1011.7
20260901191532 53 0 0.0 4.0 0.00 0.00 0.00 68 1011.5
20260901191018 54 0 0.0 4.0 0.00 0.00 0.00 68 1011.5
20260901190549 54 0 0.0 2.0 0.00 0.00 0.00 68 1011.6
20260901190041 55 0 0.0 5.0 0.00 0.00 0.00 67 1011.4
20260901185517 55 287 0.0 5.0 0.00 0.00 0.00 66 1011.4
20260901185019 55 0 0.0 4.0 0.00 0.00 0.00 66 1011.4
20260901184531 56 0 0.0 8.0 0.00 0.00 0.00 65 1011.3
20260901184016 56 0 0.0 8.0 0.00 0.00 0.00 65 1011.3
20260901183515 56 0 0.0 7.0 0.00 0.00 0.00 65 1011.2
20260901183036 57 0 0.0 8.0 0.00 0.00 0.00 64 1011.2
20260901182516 57 0 0.0 8.0 0.00 0.00 0.00 64 1011.1
20260901182016 58 267 1.0 8.0 0.00 0.00 0.00 63 1011.1
20260901181538 58 0 0.0 8.0 0.00 0.00 0.00 62 1011.0
20260901181018 59 0 1.0 7.0 0.00 0.00 0.00 62 1010.9
20260901180516 59 265 0.0 7.0 0.00 0.00 0.00 61 1010.9
20260901180033 60 241 0.0 10.0 0.00 0.00 0.00 61 1011.0
20260901175519 60 281 1.0 10.0 0.00 0.00 0.00 60 1010.9
20260901175017 60 276 0.0 6.0 0.00 0.00 0.00 60 1010.9
20260901174533 60 282 0.0 7.0 0.00 0.00 0.00 61 1010.9
20260901174019 60 287 0.0 13.0 0.00 0.00 0.00 60 1010.8
20260901173518 61 0 1.0 13.0 0.00 0.00 0.00 59 1010.9
20260901173033 61 284 1.0 13.0 0.00 0.00 0.00 57 1010.7
20260901172516 61 0 0.0 9.0 0.00 0.00 0.00 59 1010.8
20260901172016 61 0 1.0 9.0 0.00 0.00 0.00 58 1010.8
20260901171530 62 271 1.0 9.0 0.00 0.00 0.00 57 1010.7
20260901171017 62 0 1.0 9.0 0.00 0.00 0.00 57 1010.7
20260901170522 62 0 0.0 9.0 0.00 0.00 0.00 57 1010.6
20260901170031 63 0 1.0 9.0 0.00 0.00 0.00 56 1010.7
20260901165517 62 0 0.0 9.0 0.00 0.00 0.00 57 1010.6
20260901165015 62 0 1.0 11.0 0.00 0.00 0.00 56 1010.6
20260901164532 62 310 0.0 11.0 0.00 0.00 0.00 56 1010.4
20260901164016 62 259 1.0 12.0 0.00 0.00 0.00 56 1010.3
20260901163517 62 288 1.0 12.0 0.00 0.00 0.00 56 1010.2
20260901163033 62 0 3.0 15.0 0.00 0.00 0.00 55 1010.2
20260901162519 63 296 3.0 15.0 0.00 0.00 0.00 55 1010.1
20260901162016 63 284 4.0 15.0 0.00 0.00 0.00 54 1010.1
20260901161538 63 0 0.0 10.0 0.00 0.00 0.00 56 1010.1
20260901161016 64 305 1.0 13.0 0.00 0.00 0.00 55 1010.0
20260901160517 64 289 1.0 13.0 0.00 0.00 0.00 55 1010.1
20260901160048 64 0 2.0 13.0 0.00 0.00 0.00 55 1009.9
20260901155517 65 299 1.0 15.0 0.00 0.00 0.00 55 1009.9
20260901155022 66 280 4.0 15.0 0.00 0.00 0.00 53 1009.9
20260901154534 66 0 2.0 15.0 0.00 0.00 0.00 53 1009.8
20260901154019 67 292 0.0 11.0 0.00 0.00 0.00 55 1009.7
20260901153519 67 259 2.0 15.0 0.00 0.00 0.00 54 1009.8
20260901153037 67 276 4.0 15.0 0.00 0.00 0.00 53 1009.7
20260901152522 67 276 1.0 14.0 0.00 0.00 0.00 53 1009.7
20260901152017 67 0 2.0 14.0 0.00 0.00 0.00 52 1009.6
20260901151531 67 292 2.0 15.0 0.00 0.00 0.00 54 1009.5
20260901151020 67 0 2.0 15.0 0.00 0.00 0.00 52 1009.5
20260901150517 67 286 4.0 15.0 0.00 0.00 0.00 52 1009.5
20260901150037 68 5 3.0 15.0 0.00 0.00 0.00 52 1009.4
20260901145517 68 286 2.0 24.0 0.00 0.00 0.00 55 1009.4
20260901145016 68 0 2.0 24.0 0.00 0.00 0.00 55 1009.4
20260901144536 68 293 4.0 14.0 0.00 0.00 0.00 54 1009.3
20260901144018 68 284 3.0 14.0 0.00 0.00 0.00 54 1009.3
20260901143516 68 0 2.0 19.0 0.00 0.00 0.00 58 1009.2
20260901143034 68 291 2.0 19.0 0.00 0.00 0.00 57 1009.0
20260901142515 68 258 1.0 16.0 0.00 0.00 0.00 61 1009.0
20260901142016 68 0 2.0 12.0 0.00 0.00 0.00 61 1009.0
20260901141536 68 331 2.0 14.0 0.00 0.00 0.00 62 1009.0
20260901141016 67 277 2.0 14.0 0.00 0.00 0.00 64 1009.0
20260901140517 67 317 2.0 12.0 0.00 0.00 0.00 64 1008.9
20260901140033 66 288 3.0 12.0 0.00 0.00 0.00 65 1008.7
20260901135520 67 284 5.0 15.0 0.00 0.00 0.00 62 1008.9
20260901135018 67 295 2.0 15.0 0.00 0.00 0.00 62 1008.8
20260901134551 68 295 1.0 16.0 0.00 0.00 0.00 65 1008.9
20260901134016 68 276 1.0 16.0 0.00 0.00 0.00 63 1008.7
20260901133516 68 318 4.0 16.0 0.00 0.00 0.00 63 1008.6
20260901133036 68 0 1.0 13.0 0.00 0.00 0.00 65 1008.6
20260901132518 68 0 3.0 13.0 0.00 0.00 0.00 64 1008.7
20260901132019 68 274 2.0 14.0 0.00 0.00 0.00 64 1008.4
20260901131536 69 298 3.0 14.0 0.00 0.00 0.00 64 1008.4
20260901131017 69 0 1.0 14.0 0.00 0.00 0.00 64 1008.1
20260901130519 68 0 4.0 14.0 0.00 0.00 0.00 62 1008.2
20260901130034 67 312 2.0 15.0 0.00 0.00 0.00 63 1008.1
20260901125517 67 277 7.0 17.0 0.00 0.00 0.00 63 1008.1
20260901125017 66 294 7.0 17.0 0.00 0.00 0.00 65 1007.9
20260901124538 65 291 4.0 15.0 0.00 0.00 0.00 66 1007.9
20260901124017 65 300 2.0 8.0 0.00 0.00 0.00 70 1007.7
20260901123516 65 227 0.0 6.0 0.00 0.00 0.00 74 1007.7
20260901123031 64 0 0.0 6.0 0.00 0.00 0.00 76 1007.8
20260901122515 64 0 0.0 6.0 0.00 0.00 0.00 77 1007.7
20260901122018 64 0 0.0 6.0 0.00 0.00 0.00 77 1007.8
20260901121534 64 0 0.0 7.0 0.00 0.00 0.00 78 1007.8
20260901121017 63 265 0.0 12.0 0.00 0.00 0.00 81 1007.8
20260901120520 63 286 0.0 12.0 0.00 0.00 0.00 78 1007.9
20260901120035 64 265 2.0 15.0 0.00 0.00 0.00 76 1007.7
20260901115517 65 0 3.0 15.0 0.00 0.00 0.00 73 1007.6
20260901115023 66 242 3.0 15.0 0.00 0.00 0.00 68 1007.5
20260901114539 67 256 1.0 10.0 0.00 0.00 0.00 67 1007.4
20260901114016 68 252 1.0 13.0 0.00 0.00 0.00 67 1007.3
20260901113521 67 261 1.0 15.0 0.00 0.00 0.00 70 1007.4
20260901113053 67 321 2.0 15.0 0.00 0.00 0.00 70 1007.3
20260901112516 67 252 1.0 12.0 0.00 0.00 0.00 68 1007.4
20260901112016 67 0 2.0 19.0 0.00 0.00 0.00 69 1007.4
20260901111536 66 0 3.0 19.0 0.00 0.00 0.00 68 1007.4
20260901111018 66 247 6.0 17.0 0.00 0.00 0.00 70 1007.5
20260901110516 65 267 5.0 17.0 0.00 0.00 0.00 71 1007.5
20260901110034 64 259 3.0 14.0 0.00 0.00 0.00 74 1007.5
20260901105519 62 0 1.0 14.0 0.00 0.00 0.00 75 1007.6
20260901105017 61 0 3.0 14.0 0.00 0.00 0.00 75 1007.6
20260901104535 61 0 1.0 13.0 0.00 0.00 0.00 75 1007.6
20260901104018 60 0 1.0 13.0 0.00 0.00 0.00 75 1007.7
20260901103517 60 0 3.0 13.0 0.00 0.00 0.00 75 1007.7
20260901103033 60 248 2.0 13.0 0.00 0.00 0.00 74 1007.5
20260901102522 60 262 5.0 13.0 0.00 0.00 0.00 75 1007.6